Flag for Russia Weather past 2 weeks in Chelyabinsk, Russia

Now
41 °F

Clear.


Feels Like: 37 °F
Forecast: 36 / 67 °F
Wind: 6 mph from South

Location: Chelyabinsk-Balandino

Current Time: Apr 28, 2015 at 11:43:10 PM

Latest Report: Apr 28, 2015 at 11:00 PM


Visibility: 10 mi

Pressure: 30.21 "Hg

Humidity: 39%

Dew point: 18 °F

Location of ChelyabinskLocation

Historic Weather in Chelyabinsk — Graph

°F

Chelyabinsk temperature yesterday

Maximum temperature yesterday: 46 °F (at 2:30 PM)
Minimum temperature yesterday: 28 °F (at 12:30 AM)
Average temperature yesterday: 38 °F

Past Weeks' High & Low Weather Summary

 TemperatureHumidityPressure
High64 °F (Apr 16, 1:30 PM)100% (Apr 19, 11:30 PM)30.21 "Hg (Apr 19, 11:30 PM)
Low28 °F (Apr 27, 12:30 AM)11% (Apr 14, 4:30 PM)29.36 "Hg (Apr 23, 2:30 PM)
Average44 °F52%29.69 "Hg
* Reported Apr 13 10:00 PM — Apr 28 10:30 PM, Chelyabinsk, Weather by CustomWeather, © 2015

Note: Actual official high and low records may vary slightly from our data, if they occured in-between our weather recording intervals... More about our weather records

Advertising

Chelyabinsk weather history for previous 24 hours

 ConditionsComfort  
Time TempWeatherWind HumidityBarometerVisibility
10:30 PM
Tue, Apr 28
41 °FClear.6 mph36%30.21 "Hg10 mi
10:00 PM43 °FSunny.6 mph31%30.21 "Hg10 mi
9:30 PM45 °FSunny.3 mph23%30.21 "Hg10 mi
9:00 PM45 °FSunny.3 mph25%30.21 "Hg10 mi
8:30 PM45 °FSunny.6 mph23%30.21 "Hg10 mi
8:00 PM46 °FSunny.6 mph21%30.21 "Hg10 mi
7:30 PM50 °FSunny.6 mph19%30.21 "Hg10 mi
7:00 PM52 °FSunny.6 mph15%30.21 "Hg10 mi
6:30 PM54 °FPassing clouds.3 mph13%30.21 "HgN/A
6:00 PM54 °FPassing clouds.3 mph13%30.21 "HgN/A
5:30 PM54 °FSunny.3 mph13%30.21 "Hg10 mi
4:00 PM54 °FPassing clouds.3 mph12%30.21 "HgN/A
3:30 PM52 °FSunny.6 mph12%30.21 "Hg10 mi
3:00 PM52 °FPassing clouds.8 mph13%30.21 "HgN/A
2:30 PM52 °FSunny.6 mph13%30.21 "Hg10 mi
2:00 PM50 °FSunny.3 mph14%30.21 "Hg10 mi
1:30 PM50 °FPassing clouds.8 mph14%30.21 "HgN/A
1:00 PM50 °FPassing clouds.3 mph16%30.21 "HgN/A
12:30 PM50 °FPassing clouds.6 mph16%30.21 "HgN/A
12:00 PM48 °FPassing clouds.13 mph15%30.21 "HgN/A
11:30 AM48 °FPassing clouds.13 mph18%30.18 "HgN/A
11:00 AM46 °FPassing clouds.8 mph20%30.18 "HgN/A
10:30 AM46 °FSunny.10 mph21%30.18 "Hg10 mi
10:00 AM46 °FSunny.8 mph21%30.18 "Hg10 mi
9:30 AM46 °FPassing clouds.13 mph20%30.18 "HgN/A
9:00 AM45 °FSunny.8 mph27%30.15 "Hg10 mi
8:30 AM43 °FSunny.8 mph31%30.15 "Hg10 mi
8:00 AM41 °FSunny.3 mph39%30.15 "Hg10 mi
7:30 AM37 °FSunny.1 mph52%30.15 "Hg10 mi
7:00 AM37 °FClear.6 mph45%30.12 "Hg10 mi
6:30 AM36 °FClear.3 mph48%30.12 "Hg10 mi
6:00 AM32 °FClear.6 mph51%30.09 "Hg10 mi
5:30 AM34 °FClear.6 mph44%30.09 "Hg10 mi
5:00 AM32 °FClear.6 mph47%30.09 "Hg10 mi
4:30 AM32 °FClear.6 mph51%30.07 "Hg10 mi
4:00 AM32 °FClear.6 mph51%30.07 "Hg10 mi
3:30 AM32 °FPassing clouds.6 mph51%30.07 "HgN/A
3:00 AM32 °FPassing clouds.6 mph47%30.07 "HgN/A
2:30 AM36 °FPassing clouds.6 mph41%30.04 "HgN/A
2:00 AM36 °FPassing clouds.3 mph41%30.04 "HgN/A
1:30 AM34 °FPassing clouds.3 mph48%30.04 "HgN/A
1:00 AM36 °FPassing clouds.6 mph41%30.04 "HgN/A
12:30 AM36 °FPassing clouds.3 mph41%30.01 "HgN/A
12:00 AM34 °FPassing clouds.6 mph48%30.01 "HgN/A
11:30 PM
Mon, Apr 27
36 °FPassing clouds.6 mph38%30.01 "HgN/A
11:00 PM36 °FPassing clouds.3 mph35%30.01 "HgN/A
Weather by CustomWeather, © 2015

See weather overviewHow to use our weather pages